Simultaneous Nadir Overpasses (SNOs) Predictions

Prediction of SNOs between GOES-15 and NOAA-20 Satellite Orbit:

Table of predicted SNOs for the next 14.0 days since TLE Epoch: 4/20/2024
Index Date Time (GOES-15) GOES-15 Lat,Lon NOAA-20 Lat,Lon Distance(km) Time Diff (sec)
1 04/21/2024 09:22:39 -0.10, 61.33 -0.34, 60.38 108.99 80
2 04/22/2024 09:06:39 -0.10, 61.34 0.68, 64.89 403.82 80
3 04/23/2024 21:25:54 0.09, 61.33 0.49, 59.58 198.97 80
4 04/24/2024 21:09:55 0.10, 61.34 -0.53, 64.09 313.57 80
5 04/26/2024 09:29:18 -0.08, 61.40 -0.69, 58.76 301.82 80
6 04/27/2024 09:13:19 -0.09, 61.42 0.34, 63.26 210.14 80
7 04/28/2024 21:32:33 0.08, 61.42 0.88, 57.97 394.46 80
8 04/29/2024 21:16:34 0.08, 61.44 -0.16, 62.47 117.34 80
9 05/01/2024 09:35:57 -0.07, 61.51 -1.04, 57.13 498.67 80
10 05/02/2024 09:19:56 -0.08, 61.54 -0.05, 61.65 12.87 80
